TIANZHOU-10

Last updated on Thu Aug 20 2026 00:02:05 GMT+0000 (Coordinated Universal Time)

1 69049U 26102A 26231.58434056 .00009764 00000+0 12555-3 0 9994 2 69049 41.4692 297.1629 0001460 258.8922 101.1752 15.59083481303253
UTC large
Height (km)
Speed (km/s)
/
Latitude / Longitude
Inclination (degrees)
Orbital Period (minutes)
Azimuth
Elevation
Range (km)
Doppler Factor

Next 0 passes for location: London (51.5072 / 0.1276)

No passes found over London.
TIANZHOU-10